Litchfield, MN

1:47 AM CST on February 10, 2016 (GMT -0600)
Litchfield Municipal

Weather History for KLJF - December, 2011

Change the Weather History Date:

Monday, December 5, 2011

  Actual Average Record
Temperature  
Mean Temperature 17 °F -  
Max Temperature 19 °F 30 °F 50 °F (1960)
Min Temperature 15 °F 13 °F -12 °F (1984)
Degree Days  
Heating Degree Days 48    
Moisture  
Dew Point 11 °F    
Average Humidity 77    
Maximum Humidity 86    
Minimum Humidity 68    
Precipitation  
Precipitation 0.00 in - - ()
Sea Level Pressure  
Sea Level Pressure 30.44 in    
Wind  
Wind Speed 8 mph (NNW)    
Max Wind Speed 14 mph    
Max Gust Speed 18 mph    
Visibility 10 miles    
Events Snow    
Averages and records for this station are not official NWS values.
T = Trace of Precipitation, MM = Missing Value Source: NWS Daily Summary

Daily Weather History Graph

Daily Weather History Graph

Search for Another Location

Airport or City:

Trip Planner

Search our weather history database for the weather conditions in past years. The results will help you decide how hot, cold, wet, or windy it might be!

Date:

Astronomy

Dec. 05, 2011 Rise Set
Actual Time 7:40 AM CST 4:36 PM CST
Civil Twilight 7:07 AM CST 5:09 PM CST
Nautical Twilight 6:30 AM CST 5:46 PM CST
Astronomical Twilight 5:54 AM CST 6:22 PM CST
Moon 1:42 PM CST (12/5) 2:54 AM CST (12/5)
Length of Visible Light 10h 02m
Length of Day
8h 55m
Waxing Gibbous, 80% of the Moon is Illuminated
Dec 5
Waxing Gibbous
Dec 10
Full
Dec 17
Last Quarter
Dec 24
New
Jan 1
First Quarter

Hourly Weather History & Observations

Time (CST) Temp. Windchill Dew Point Humidity Pressure Visibility Wind Dir Wind Speed Gust Speed Precip Events Conditions
12:13 AM 17.6 °F 10.7 °F 12.2 °F 79% 30.36 in 10.0 mi NW 4.6 mph - N/A   Overcast
12:33 AM 17.6 °F 8.2 °F 12.2 °F 79% 30.36 in 10.0 mi NW 6.9 mph - N/A   Overcast
12:53 AM 17.6 °F 8.2 °F 12.2 °F 79% 30.36 in 10.0 mi WNW 6.9 mph - N/A   Overcast
1:13 AM 19.4 °F 12.8 °F 14.0 °F 80% 30.36 in 10.0 mi NW 4.6 mph - N/A   Overcast
1:33 AM 19.4 °F 10.4 °F 14.0 °F 80% 30.36 in 10.0 mi NW 6.9 mph - N/A   Overcast
1:53 AM 19.4 °F 11.5 °F 14.0 °F 80% 30.36 in 10.0 mi NW 5.8 mph - N/A   Overcast
2:13 AM 19.4 °F 11.5 °F 12.2 °F 74% 30.36 in 10.0 mi NW 5.8 mph - N/A   Overcast
2:33 AM 19.4 °F 10.4 °F 14.0 °F 80% 30.37 in 10.0 mi NW 6.9 mph - N/A   Overcast
2:53 AM 19.4 °F 11.5 °F 14.0 °F 80% 30.37 in 10.0 mi NW 5.8 mph - N/A   Overcast
3:13 AM 19.4 °F 12.8 °F 14.0 °F 80% 30.37 in 10.0 mi NW 4.6 mph - N/A   Overcast
3:33 AM 19.4 °F 11.5 °F 14.0 °F 80% 30.37 in 10.0 mi NNW 5.8 mph - N/A   Overcast
4:13 AM 19.4 °F 8.6 °F 14.0 °F 80% 30.38 in 10.0 mi NNW 9.2 mph - N/A   Overcast
4:33 AM 19.4 °F 7.9 °F 14.0 °F 80% 30.38 in 10.0 mi North 10.4 mph - N/A   Overcast
5:13 AM 17.6 °F 5.0 °F 12.2 °F 79% 30.40 in 10.0 mi NNW 11.5 mph - N/A   Overcast
5:33 AM 17.6 °F 5.7 °F 14.0 °F 86% 30.42 in 10.0 mi NNW 10.4 mph - N/A Snow Light Snow
5:53 AM 17.6 °F 5.7 °F 14.0 °F 86% 30.42 in 10.0 mi NNW 10.4 mph - N/A Snow Light Snow
6:14 AM 17.6 °F 5.0 °F 14.0 °F 86% 30.42 in 10.0 mi NNW 11.5 mph - N/A Snow Light Snow
6:53 AM 17.6 °F 7.3 °F 14.0 °F 86% 30.43 in 7.0 mi North 8.1 mph - N/A Snow Light Snow
7:13 AM 17.6 °F 6.4 °F 14.0 °F 86% 30.43 in 10.0 mi North 9.2 mph - N/A Snow Light Snow
7:33 AM 15.8 °F 3.4 °F 12.2 °F 86% 30.44 in 10.0 mi North 10.4 mph - N/A Snow Light Snow
7:53 AM 15.8 °F 2.7 °F 12.2 °F 86% 30.44 in 10.0 mi North 11.5 mph - N/A Snow Light Snow
8:13 AM 15.8 °F 1.4 °F 12.2 °F 86% 30.45 in 10.0 mi North 13.8 mph - N/A Snow Light Snow
8:33 AM 15.8 °F 3.4 °F 12.2 °F 86% 30.46 in 10.0 mi North 10.4 mph - N/A Snow Light Snow
8:53 AM 15.8 °F 4.2 °F 12.2 °F 86% 30.47 in 10.0 mi North 9.2 mph - N/A Snow Light Snow
9:13 AM 15.8 °F 2.7 °F 12.2 °F 86% 30.48 in 10.0 mi North 11.5 mph - N/A Snow Light Snow
9:33 AM 15.8 °F 2.7 °F 12.2 °F 86% 30.49 in 10.0 mi North 11.5 mph - N/A   Overcast
9:53 AM 17.6 °F 4.3 °F 10.4 °F 73% 30.49 in 10.0 mi North 12.7 mph 16.1 mph N/A   Overcast
10:13 AM 17.6 °F 5.0 °F 10.4 °F 73% 30.49 in 10.0 mi North 11.5 mph 18.4 mph N/A   Overcast
10:33 AM 17.6 °F 5.0 °F 12.2 °F 79% 30.50 in 10.0 mi North 11.5 mph - N/A   Overcast
10:53 AM 17.6 °F 5.7 °F 10.4 °F 73% 30.49 in 10.0 mi NW 10.4 mph - N/A   Overcast
11:13 AM 17.6 °F 5.0 °F 10.4 °F 73% 30.49 in 10.0 mi NNW 11.5 mph - N/A   Overcast
11:33 AM 17.6 °F 3.7 °F 10.4 °F 73% 30.48 in 10.0 mi NW 13.8 mph - N/A   Overcast
11:53 AM 17.6 °F 5.0 °F 10.4 °F 73% 30.48 in 10.0 mi NNW 11.5 mph - N/A   Overcast
12:13 PM 17.6 °F 4.3 °F 10.4 °F 73% 30.48 in 10.0 mi NNW 12.7 mph 16.1 mph N/A Snow Light Snow
12:33 PM 17.6 °F 5.7 °F 10.4 °F 73% 30.48 in 10.0 mi NNW 10.4 mph - N/A Snow Light Snow
12:53 PM 17.6 °F 5.0 °F 8.6 °F 68% 30.48 in 10.0 mi NNW 11.5 mph - N/A Snow Light Snow
1:13 PM 17.6 °F 5.7 °F 10.4 °F 73% 30.48 in 10.0 mi NNW 10.4 mph - N/A   Overcast
1:33 PM 17.6 °F 7.3 °F 8.6 °F 68% 30.47 in 10.0 mi NNW 8.1 mph - N/A   Overcast
1:53 PM 17.6 °F 9.3 °F 8.6 °F 68% 30.47 in 10.0 mi NNW 5.8 mph - N/A   Overcast
2:13 PM 17.6 °F 7.3 °F 8.6 °F 68% 30.46 in 10.0 mi North 8.1 mph - N/A Snow Light Snow
2:33 PM 17.6 °F 5.0 °F 8.6 °F 68% 30.46 in 10.0 mi North 11.5 mph - N/A   Overcast
2:53 PM 17.6 °F 5.7 °F 8.6 °F 68% 30.46 in 10.0 mi NW 10.4 mph - N/A   Overcast
3:13 PM 17.6 °F 8.2 °F 8.6 °F 68% 30.47 in 10.0 mi NW 6.9 mph - N/A   Overcast
3:33 PM 17.6 °F 8.2 °F 8.6 °F 68% 30.46 in 10.0 mi NW 6.9 mph - N/A   Overcast
3:53 PM 17.6 °F 8.2 °F 8.6 °F 68% 30.47 in 10.0 mi NW 6.9 mph - N/A   Overcast
4:13 PM 17.6 °F 6.4 °F 8.6 °F 68% 30.47 in 10.0 mi NNW 9.2 mph - N/A   Overcast
4:33 PM 15.8 °F 6.1 °F 8.6 °F 73% 30.48 in 10.0 mi NNW 6.9 mph - N/A   Overcast
4:53 PM 15.8 °F 5.1 °F 8.6 °F 73% 30.48 in 10.0 mi NW 8.1 mph 16.1 mph N/A   Overcast
5:13 PM 15.8 °F 5.1 °F 8.6 °F 73% 30.48 in 10.0 mi NW 8.1 mph - N/A   Overcast
5:33 PM 15.8 °F 3.4 °F 8.6 °F 73% 30.48 in 10.0 mi NNW 10.4 mph - N/A   Overcast
5:53 PM 15.8 °F 6.1 °F 8.6 °F 73% 30.49 in 10.0 mi NNW 6.9 mph - N/A   Overcast
6:13 PM 15.8 °F 3.4 °F 8.6 °F 73% 30.48 in 10.0 mi NNW 10.4 mph - N/A   Overcast
6:33 PM 15.8 °F 5.1 °F 8.6 °F 73% 30.48 in 10.0 mi NNW 8.1 mph - N/A   Overcast
6:53 PM 15.8 °F 5.1 °F 8.6 °F 73% 30.48 in 10.0 mi North 8.1 mph - N/A   Overcast
7:13 PM 15.8 °F 5.1 °F 8.6 °F 73% 30.47 in 10.0 mi North 8.1 mph - N/A   Overcast
7:33 PM 14.0 °F 2.9 °F 8.6 °F 79% 30.48 in 10.0 mi North 8.1 mph - N/A   Mostly Cloudy
7:53 PM 12.2 °F 2.9 °F 6.8 °F 79% 30.48 in 10.0 mi NNW 5.8 mph - N/A   Scattered Clouds
8:33 PM 10.4 °F 0.8 °F 6.8 °F 85% 30.48 in 10.0 mi NW 5.8 mph - N/A   Clear
8:53 PM 10.4 °F 0.8 °F 6.8 °F 85% 30.48 in 10.0 mi NW 5.8 mph - N/A   Clear
9:13 PM 10.4 °F 2.2 °F 6.8 °F 85% 30.48 in 10.0 mi NW 4.6 mph - N/A   Clear
9:33 PM 8.6 °F 2.0 °F 5.0 °F 85% 30.47 in 10.0 mi NW 3.5 mph - N/A   Clear
9:53 PM 8.6 °F 2.0 °F 5.0 °F 85% 30.47 in 10.0 mi NW 3.5 mph - N/A   Clear
10:14 PM 8.6 °F 2.0 °F 5.0 °F 85% 30.47 in 10.0 mi WNW 3.5 mph - N/A   Clear
10:33 PM 8.6 °F 0.1 °F 3.2 °F 79% 30.46 in 10.0 mi NW 4.6 mph - N/A   Clear
10:53 PM 8.6 °F 0.1 °F 3.2 °F 79% 30.47 in 10.0 mi NW 4.6 mph - N/A   Clear
11:14 PM 8.6 °F 2.0 °F 3.2 °F 79% 30.46 in 10.0 mi NW 3.5 mph - N/A   Clear
11:33 PM 6.8 °F -0.1 °F 3.2 °F 85% 30.46 in 10.0 mi WNW 3.5 mph - N/A   Clear
11:53 PM 6.8 °F -0.1 °F 3.2 °F 85% 30.46 in 10.0 mi WNW 3.5 mph - N/A   Clear